Regal Star — ESCM — position and weather

sailwx.info

Track history (hours):
 
Tides and Currents Weather Stations Pressure Air Temp Water Temp Dewpoint Dewpoint Depression Visibility Wind Speed Wind Dir Waves Ship Positions

Regal Star

Last reported at 2014-Jul-23 23:34 UTC. Time now 2014-Jul-24 00:20 UTC.
Position N 59°33' E 021°17'.

Length 157 m; draft 6.1 m.

Type: Ship (hazmat cat D). MMSI: 276554000.

Date/timePositionNaut miles runAvg speedWind from/ knotsBaromVisibWave heightAir tempDewpointWater temp
2014-Jul-23 23:34N 59°33' E 021°17'1615.3
2014-Jul-23 22:30N 59°37' E 020°46'44 2.3
2014-Jul-23 03:34N 59°46' E 019°20'1615.2
2014-Jul-23 02:30N 59°43' E 019°52'3515.2
2014-Jul-23 00:13N 59°31' E 020°56'1116.0
2014-Jul-22 23:34N 59°29' E 021°16'1616.0
2014-Jul-22 22:34N 59°24' E 021°47'1615.6
2014-Jul-22 21:33N 59°20' E 022°16'3415.3
2014-Jul-22 19:21N 59°22' E 023°23'1215.1
2014-Jul-22 18:33N 59°22' E 023°46'1 0.1
2014-Jul-22 04:34N 59°23' E 023°44'1514.7
2014-Jul-22 03:33N 59°23' E 023°15'10414.9
2014-Jul-21 20:33N 59°45' E 019°55'415.6
2014-Jul-21 20:17N 59°45' E 019°47'38 1.9
2014-Jul-21 00:12N 59°31' E 020°56'1015.4
2014-Jul-20 23:33N 59°29' E 021°15'1515.5
2014-Jul-20 22:33N 59°25' E 021°45'1515.4
2014-Jul-20 21:33N 59°22' E 022°14'1515.5
2014-Jul-20 20:33N 59°20' E 022°44'1615.4
2014-Jul-20 19:33N 59°22' E 023°15'1515.3
2014-Jul-20 18:33N 59°23' E 023°44'6 1.3
2014-Jul-20 14:17N 59°22' E 023°34'1916.3
2014-Jul-20 13:05N 59°21' E 022°56'1016.2
2014-Jul-20 12:27N 59°20' E 022°35'1516.0
2014-Jul-20 11:32N 59°23' E 022°07'47 2.8
2014-Jul-19 18:30N 59°23' E 023°39'13 1.0
2014-Jul-19 05:22N 59°20' E 024°05'1012.0
2014-Jul-19 04:33N 59°22' E 023°46'1613.8
2014-Jul-19 03:25N 59°21' E 023°16'1213.9
2014-Jul-19 02:33N 59°21' E 022°52'1514.6
2014-Jul-19 01:33N 59°21' E 022°23'27 0.9
2014-Jul-17 19:33N 59°22' E 023°15'1615.5
2014-Jul-17 18:33N 59°23' E 023°46'2 0.1
2014-Jul-17 04:30N 59°22' E 023°41'7 0.2
2014-Jul-15 19:07N 59°22' E 023°27'915.7
2014-Jul-15 18:32N 59°23' E 023°45'  
Track history (hours):
 
Tides and Currents Weather Stations Pressure Air Temp Water Temp Dewpoint Dewpoint Depression Visibility Wind Speed Wind Dir Waves Ship Positions

Regal Star

Last reported at 2014-Jul-23 23:34 UTC. Time now 2014-Jul-24 00:20 UTC.
Position N 59°33' E 021°17'.

Length 157 m; draft 6.1 m.

Type: Ship (hazmat cat D). MMSI: 276554000.

Date/timePositionNaut miles runAvg speedWind from/ knotsBaromVisibWave heightAir tempDewpointWater temp
2014-Jul-23 23:34N 59°33' E 021°17'1615.3
2014-Jul-23 22:30N 59°37' E 020°46'44 2.3
2014-Jul-23 03:34N 59°46' E 019°20'1615.2
2014-Jul-23 02:30N 59°43' E 019°52'3515.2
2014-Jul-23 00:13N 59°31' E 020°56'1116.0
2014-Jul-22 23:34N 59°29' E 021°16'1616.0
2014-Jul-22 22:34N 59°24' E 021°47'1615.6
2014-Jul-22 21:33N 59°20' E 022°16'3415.3
2014-Jul-22 19:21N 59°22' E 023°23'1215.1
2014-Jul-22 18:33N 59°22' E 023°46'1 0.1
2014-Jul-22 04:34N 59°23' E 023°44'1514.7
2014-Jul-22 03:33N 59°23' E 023°15'10414.9
2014-Jul-21 20:33N 59°45' E 019°55'415.6
2014-Jul-21 20:17N 59°45' E 019°47'38 1.9
2014-Jul-21 00:12N 59°31' E 020°56'1015.4
2014-Jul-20 23:33N 59°29' E 021°15'1515.5
2014-Jul-20 22:33N 59°25' E 021°45'1515.4
2014-Jul-20 21:33N 59°22' E 022°14'1515.5
2014-Jul-20 20:33N 59°20' E 022°44'1615.4
2014-Jul-20 19:33N 59°22' E 023°15'1515.3
2014-Jul-20 18:33N 59°23' E 023°44'6 1.3
2014-Jul-20 14:17N 59°22' E 023°34'1916.3
2014-Jul-20 13:05N 59°21' E 022°56'1016.2
2014-Jul-20 12:27N 59°20' E 022°35'1516.0
2014-Jul-20 11:32N 59°23' E 022°07'47 2.8
2014-Jul-19 18:30N 59°23' E 023°39'13 1.0
2014-Jul-19 05:22N 59°20' E 024°05'1012.0
2014-Jul-19 04:33N 59°22' E 023°46'1613.8
2014-Jul-19 03:25N 59°21' E 023°16'1213.9
2014-Jul-19 02:33N 59°21' E 022°52'1514.6
2014-Jul-19 01:33N 59°21' E 022°23'27 0.9
2014-Jul-17 19:33N 59°22' E 023°15'1615.5
2014-Jul-17 18:33N 59°23' E 023°46'2 0.1
2014-Jul-17 04:30N 59°22' E 023°41'7 0.2
2014-Jul-15 19:07N 59°22' E 023°27'915.7
2014-Jul-15 18:32N 59°23' E 023°45'  

Dump ship's entire track history